Weather History for KPIE - January, 2007

Change the Weather History Date:

Thursday, January 4, 2007

  Actual Average Record
Temperature  
Mean Temperature 74 °F -  
Max Temperature 79 °F 70 °F 83 °F (1971)
Min Temperature 70 °F 56 °F 34 °F (1979)
Cooling Degree Days 10    
Growing Degree Days 24 (Base 50)    
Moisture  
Dew Point 66 °F    
Average Humidity 80    
Maximum Humidity 90    
Minimum Humidity 60    
Precipitation  
Precipitation 0.00 in - - ()
Sea Level Pressure  
Sea Level Pressure 30.14 in    
Wind  
Wind Speed 6 mph (ESE)    
Max Wind Speed 13 mph    
Max Gust Speed -    
Visibility 10 miles    
Events      
Averages and records for this station are not official NWS values.
T = Trace of Precipitation, MM = Missing Value Source: NWS Daily Summary

Daily Weather History Graph

Daily Weather History Graph

Search for Another Location

Airport or City:

Trip Planner

Search our weather history database for the weather conditions in past years. The results will help you decide how hot, cold, wet, or windy it might be!

Date:

Astronomy

Jan. 04, 2007 Rise Set
Actual Time 7:22 AM EST 5:48 PM EST
Civil Twilight 6:57 AM EST 6:14 PM EST
Nautical Twilight 6:27 AM EST 6:43 PM EST
Astronomical Twilight 5:59 AM EST 7:12 PM EST
Moon 7:00 PM EST (1/4) 8:26 AM EST (1/4)
Length of Visible Light 11h 17m
Length of Day
10h 26m
Full, 99% of the Moon is Illuminated
Jan 4
Full
Jan 11
Last Quarter
Jan 18
New
Jan 25
First Quarter
Feb 2
Full

Hourly Weather History & Observations

Time (EST) Temp. Dew Point Humidity Pressure Visibility Wind Dir Wind Speed Gust Speed Precip Events Conditions
12:53 AM 71.1 °F 68.0 °F 90% 30.18 in 6.0 mi East 5.8 mph - N/A   Clear
1:53 AM 71.1 °F 66.9 °F 87% 30.19 in 10.0 mi ESE 4.6 mph - N/A   Clear
2:53 AM 71.1 °F 66.9 °F 87% 30.18 in 10.0 mi ESE 8.1 mph - N/A   Clear
3:53 AM 71.1 °F 66.9 °F 87% 30.19 in 10.0 mi SE 4.6 mph - N/A   Partly Cloudy
4:53 AM 71.1 °F 66.9 °F 87% 30.17 in 10.0 mi ESE 9.2 mph - N/A   Clear
5:53 AM 70.0 °F 66.9 °F 90% 30.19 in 10.0 mi ESE 6.9 mph - N/A   Clear
6:53 AM 70.0 °F 66.0 °F 87% 30.19 in 8.0 mi ESE 3.5 mph - N/A   Clear
7:53 AM 70.0 °F 66.9 °F 90% 30.19 in 5.0 mi ESE 4.6 mph - N/A   Clear
8:53 AM 71.1 °F 66.9 °F 87% 30.20 in 9.0 mi SE 6.9 mph - N/A   Clear
9:53 AM 73.0 °F 66.9 °F 81% 30.21 in 10.0 mi SE 6.9 mph - N/A   Overcast
10:53 AM 73.9 °F 66.9 °F 79% 30.19 in 10.0 mi SE 9.2 mph - N/A   Clear
11:53 AM 75.9 °F 66.0 °F 71% 30.16 in 10.0 mi SE 12.7 mph - N/A   Clear
12:53 PM 78.1 °F 64.9 °F 64% 30.13 in 10.0 mi SE 11.5 mph - N/A   Scattered Clouds
1:53 PM 78.1 °F 64.9 °F 64% 30.10 in 10.0 mi SE 5.8 mph - N/A   Scattered Clouds
2:53 PM 79.0 °F 64.0 °F 60% 30.09 in 10.0 mi ESE 5.8 mph - N/A   Clear
3:53 PM 78.1 °F 64.9 °F 64% 30.09 in 10.0 mi ENE 4.6 mph - N/A   Clear
4:53 PM 75.0 °F 66.0 °F 73% 30.09 in 10.0 mi Calm Calm - N/A   Clear
5:53 PM 73.0 °F 66.0 °F 79% 30.09 in 10.0 mi ENE 3.5 mph - N/A   Clear
6:53 PM 71.1 °F 64.9 °F 81% 30.09 in 10.0 mi East 3.5 mph - N/A   Clear
7:53 PM 72.0 °F 64.9 °F 78% 30.09 in 10.0 mi ESE 8.1 mph - N/A   Clear
8:53 PM 73.0 °F 66.0 °F 79% 30.09 in 10.0 mi SE 5.8 mph - N/A   Mostly Cloudy
9:53 PM 73.0 °F 66.0 °F 79% 30.09 in 10.0 mi SE 6.9 mph - N/A   Mostly Cloudy
10:53 PM 72.0 °F 66.0 °F 81% 30.09 in 10.0 mi SE 8.1 mph - N/A   Clear
11:53 PM 72.0 °F 66.9 °F 84% 30.08 in 10.0 mi SE 8.1 mph - N/A   Clear